GEFSSGP_con_cape1000_000.txt.gz
Probability
0 0 0 0 3 3 0 0 0 0 0 0 0 0 0 0 0 74 65 3 6 0 81 77 100 100 100 100 100 100 100 100 100 100 100 100 100 97 97 100 87 48 39 74 100 100 100 100 100
0 0 0 0 0 0 0 0 3 0 0 0 0 0 0 0 0 68 81 19 19 0 35 19 100 100 100 100 100 100 100 100 100 100 100 100 100 100 100 100 100 100 87 48 35 61 84 94 100
0 0 0 0 0 0 0 0 0 0 0 0 0 0 0 0 0 0 13 29 26 19 23 100 100 100 100 100 100 100 100 100 100 100 100 100 100 100 100 100 100 100 100 100 94 65 48 68 94
0 0 0 0 0 0 0 0 0 23 0 0 0 0 0 0 0 0 10 35 39 29 16 100 100 100 100 100 100 100 100 100 100 100 100 100 100 100 100 100 97 100 100 100 100 100 100 94 94
0 0 0 0 0 0 3 0 0 19 0 10 0 0 0 13 3 0 10 39 35 35 48 100 100 100 100 100 100 100 100 100 100 100 100 100 97 97 97 97 97 97 100 100 100 100 100 100 100
0 0 0 0 0 0 0 0 0 0 10 29 3 0 84 77 19 16 6 16 3 16 52 100 100 100 100 100 100 100 100 100 100 100 100 100 100 100 100 97 97 97 97 97 100 100 100 100 100
0 0 0 0 0 0 0 3 16 0 26 97 16 13 52 100 81 84 90 74 39 16 32 100 100 100 100 100 100 100 100 100 100 100 100 100 100 100 100 100 100 100 100 100 100 100 100 100 100
0 0 0 0 0 0 6 6 13 6 81 94 90 35 26 100 100 100 100 100 100 81 74 100 100 100 100 100 100 100 100 100 100 100 100 100 100 100 100 100 100 100 100 100 100 100 100 100 100
0 0 0 0 0 0 0 0 0 6 35 87 97 94 100 100 100 100 100 100 100 100 100 100 97 94 94 97 100 100 100 100 100 100 100 100 100 100 100 100 100 100 100 100 100 100 100 100 100
0 0 0 0 0 0 0 0 0 3 10 58 100 100 100 100 100 100 100 100 100 100 100 100 100 100 100 94 97 100 100 100 100 100 100 100 100 100 100 100 100 100 100 100 100 100 100 100 100
0 0 0 0 0 0 0 0 0 0 0 0 84 100 100 100 100 100 100 100 100 100 100 100 100 100 100 100 100 100 100 100 100 100 100 100 100 100 100 100 100 100 100 100 100 100 100 100 100
0 0 0 0 0 0 0 0 0 0 0 45 90 100 100 100 100 100 100 100 100 100 100 100 100 100 100 100 100 100 100 100 100 100 100 100 100 100 100 100 100 100 100 100 100 100 100 81 61
0 0 0 0 0 0 0 0 0 0 0 65 100 100 100 100 100 100 100 100 100 100 100 100 100 100 100 100 100 100 100 100 97 100 100 100 100 100 100 100 100 100 100 100 100 90 32 55 48
0 0 0 0 0 0 0 0 0 0 3 71 100 100 100 100 100 100 100 100 100 100 100 100 100 100 100 100 100 100 100 100 100 100 100 100 100 100 100 100 100 100 100 100 94 23 0 0 0
0 0 0 0 0 0 0 0 0 0 3 58 100 100 100 100 100 100 100 100 100 100 100 100 100 100 100 100 100 100 100 100 100 100 100 100 100 100 100 97 94 97 100 94 68 10 0 0 0
0 0 0 0 0 0 0 0 0 0 3 65 100 100 100 100 100 100 100 100 100 100 100 100 100 100 100 100 100 100 100 100 100 100 100 100 100 100 100 97 97 87 90 81 29 0 0 0 0
0 0 0 0 0 0 0 0 10 19 10 71 100 100 100 100 97 97 97 100 100 100 100 100 100 100 100 100 100 100 100 100 97 97 97 90 81 68 97 90 87 94 84 77 77 45 13 16 26
0 0 0 0 0 0 0 0 71 100 81 100 100 100 100 100 97 97 97 100 100 100 100 100 100 100 100 100 100 100 97 81 71 55 61 81 39 10 23 19 16 3 3 3 23 52 87 94 94
0 0 0 0 0 0 0 3 97 100 100 100 100 100 100 97 97 97 100 100 100 100 100 100 100 100 100 100 90 74 19 6 0 0 6 10 0 10 19 0 0 0 0 0 0 3 3 19 42
0 0 0 0 0 0 0 0 94 100 100 100 100 100 100 97 94 90 84 71 97 100 100 100 100 100 100 97 74 16 0 0 0 0 6 26 45 45 6 3 0 0 0 0 0 0 0 0 0
0 0 0 0 0 0 0 0 3 100 100 100 100 100 100 94 81 39 16 19 90 97 100 100 100 100 100 68 39 97 97 87 6 6 10 35 45 13 3 0 0 0 0 0 0 0 0 0 0
0 0 0 0 0 0 0 0 0 0 90 100 100 100 100 90 3 0 0 10 65 97 97 100 100 100 100 100 32 65 6 0 0 6 0 42 10 3 0 0 0 0 0 0 0 0 0 0 0
0 0 0 0 0 0 0 0 0 0 0 16 100 100 100 81 6 10 10 26 45 97 97 97 100 100 100 100 100 87 35 0 0 23 68 45 6 0 0 0 0 0 0 0 0 6 13 6 0
0 0 0 0 0 0 0 0 0 0 16 19 52 100 100 77 26 13 23 61 84 100 100 100 100 100 100 100 97 97 100 84 48 68 39 0 0 0 0 0 0 0 0 0 0 0 6 6 13
0 0 0 0 0 0 0 0 0 0 0 26 42 39 42 23 29 13 16 32 61 71 77 77 90 100 100 100 97 100 100 100 100 84 16 3 0 0 0 0 0 0 0 0 0 0 3 3 6
0 0 0 0 0 0 0 0 0 0 0 0 0 0 0 0 0 0 0 0 0 3 6 26 39 55 71 74 77 100 100 90 87 68 29 0 0 0 0 0 0 0 0 0 0 0 0 0 10
0 0 0 0 0 0 0 0 0 0 0 0 0 0 0 0 0 0 0 0 0 0 0 0 3 23 39 26 42 84 97 100 84 84 74 0 0 0 0 0 0 0 0 0 0 0 0 0 0
0 0 0 0 0 0 0 0 16 0 0 0 0 0 0 0 0 0 0 0 0 0 0 0 0 0 0 0 13 32 77 100 100 100 87 16 0 0 0 0 0 0 0 0 3 0 0 0 0
0 0 0 0 0 0 0 0 0 0 0 0 0 0 0 0 0 0 0 0 0 0 0 0 0 0 0 0 0 0 0 23 68 97 97 48 10 0 0 0 0 0 0 0 0 0 0 0 0
0 0 0 0 0 0 0 0 0 0 0 0 0 0 0 0 0 0 0 0 0 0 0 0 0 0 0 0 0 0 0 0 0 10 58 77 48 3 0 0 0 0 0 0 0 0 0 0 0

GEFSSGP_con_cape1000_006.txt.gz
Probability
0 0 0 0 26 71 16 0 0 0 0 0 0 0 0 26 100 16 0 45 52 10 77 100 100 100 100 100 100 100 100 100 100 100 100 81 23 0 0 0 10 16 52 77 77 77 84 97 100
0 0 0 0 3 0 0 0 0 0 0 0 0 0 0 0 26 0 0 97 52 6 19 90 100 100 100 100 100 100 100 100 100 100 100 100 58 16 6 3 0 0 0 0 0 3 10 19 23
0 0 0 0 0 0 0 0 0 0 0 0 0 0 0 0 3 39 10 81 58 3 16 100 100 100 100 100 100 100 100 100 100 100 100 100 94 81 52 29 6 0 3 3 0 0 0 0 3
0 0 0 0 0 0 0 0 0 0 0 0 0 0 0 0 0 29 6 48 74 39 77 100 100 100 100 100 100 100 100 100 100 100 100 100 90 71 42 29 16 16 10 19 19 29 19 6 0
0 0 0 0 0 0 0 0 0 0 0 0 0 0 0 0 13 10 3 39 84 84 100 97 100 100 100 100 100 100 100 100 100 100 100 100 97 77 74 61 52 55 65 68 87 97 100 100 81
0 0 0 0 0 0 0 0 0 0 0 0 0 3 0 0 0 6 10 23 16 97 100 100 100 100 100 100 100 100 100 100 100 100 100 100 100 94 90 94 87 87 87 94 97 100 100 100 100
0 0 0 0 0 0 0 0 0 0 0 0 0 3 3 0 0 6 13 13 23 97 100 100 100 100 100 100 100 100 100 100 100 100 100 100 100 100 100 100 100 100 100 100 100 100 100 100 100
0 0 0 0 0 0 0 0 0 0 0 0 0 6 13 13 0 3 3 3 23 100 100 100 100 100 100 100 100 100 100 100 100 100 100 100 100 100 100 100 100 100 100 100 100 100 100 100 100
0 0 0 0 0 0 0 0 0 0 0 3 16 32 90 68 39 29 13 0 32 94 100 100 100 100 100 100 100 100 100 100 100 100 100 100 100 100 100 100 100 100 100 100 100 100 100 100 100
0 0 0 0 0 0 0 0 0 0 0 39 87 94 94 100 100 100 97 97 84 94 100 100 100 100 100 100 100 100 100 100 100 100 100 100 100 100 100 100 100 100 100 100 100 100 100 100 100
0 0 0 0 0 0 0 0 0 0 0 39 90 94 97 100 100 100 100 100 100 100 100 100 100 100 100 100 100 100 100 100 100 100 100 100 100 100 100 100 100 100 100 100 100 100 100 100 100
0 0 0 0 0 0 0 0 0 0 0 48 90 90 94 100 100 100 100 100 100 100 100 100 100 100 100 100 100 100 100 100 100 100 100 100 100 100 100 100 100 100 100 100 100 100 100 100 100
0 0 0 0 0 0 0 0 0 0 0 19 81 94 87 100 100 100 100 100 100 100 100 100 100 100 100 100 100 100 100 100 100 100 100 100 100 100 100 100 100 100 100 100 100 100 100 100 100
0 0 0 0 0 0 0 0 0 0 3 6 52 90 97 100 100 97 100 100 100 100 100 100 100 100 100 100 100 100 100 100 100 100 100 100 100 100 100 100 100 100 100 100 97 94 100 94 74
0 0 0 0 0 0 0 0 0 0 0 6 23 55 90 100 94 94 100 100 100 100 100 100 100 100 100 100 100 100 100 100 100 100 100 100 100 100 100 100 100 100 100 100 100 100 97 77 61
0 0 0 0 0 0 0 0 0 0 0 0 10 32 77 100 97 97 100 100 100 100 100 100 100 100 100 100 100 100 100 100 100 100 100 100 100 100 100 100 100 100 100 100 100 100 97 74 55
0 0 0 0 0 0 0 0 0 0 0 0 0 13 65 100 100 100 100 100 100 100 100 100 100 100 100 100 100 100 100 100 100 97 100 100 94 81 94 100 100 100 100 100 100 97 97 90 81
0 0 0 0 0 0 0 0 0 0 0 0 0 13 87 100 100 100 100 100 100 100 97 100 100 100 100 100 100 100 100 100 97 87 97 42 39 32 55 84 97 77 74 77 87 100 100 97 94
0 0 0 0 0 0 0 0 0 0 0 0 3 55 94 100 100 97 87 94 97 94 97 97 100 100 100 100 100 100 100 100 71 68 71 0 6 23 71 81 84 68 65 65 32 32 29 29 42
0 0 0 0 0 0 0 0 0 0 0 0 6 65 94 97 90 68 65 74 90 94 94 97 100 100 100 100 100 100 97 90 81 61 84 32 65 84 35 94 65 68 77 29 42 39 32 0 0
0 0 0 0 0 0 0 0 0 0 0 6 35 71 68 52 42 29 26 61 87 90 84 90 97 100 100 100 100 100 100 100 97 97 100 100 97 87 71 45 55 68 45 39 68 55 29 0 0
0 0 0 0 0 0 0 0 0 3 23 16 29 23 13 6 6 6 19 45 65 77 81 84 90 97 100 100 100 100 100 97 100 100 100 100 87 68 45 29 48 77 61 55 29 26 48 32 3
0 0 0 0 0 0 0 0 3 39 55 55 23 10 3 0 0 3 16 23 23 26 29 45 71 90 97 100 100 100 100 100 100 100 100 100 100 100 81 68 61 71 55 52 52 42 29 16 13
0 0 0 0 0 0 0 0 6 74 74 58 19 6 0 0 0 3 6 6 6 3 10 16 29 45 58 68 87 97 100 100 100 100 100 100 100 100 90 77 74 58 39 45 48 52 19 29 23
0 0 0 0 0 0 0 0 10 26 19 19 3 3 3 3 3 3 0 0 0 0 0 0 10 16 13 13 35 52 71 94 97 100 100 100 100 97 90 26 52 35 39 39 45 55 52 42 52
0 0 0 0 0 0 0 0 10 0 0 0 0 0 0 0 0 0 0 0 0 0 0 0 0 0 0 0 0 0 19 35 42 52 84 94 97 90 71 23 19 48 35 16 42 45 39 55 39
0 0 0 0 0 0 0 6 0 0 0 0 0 0 0 0 0 0 0 0 0 0 0 0 0 0 0 0 0 0 0 0 10 19 35 52 68 68 84 74 52 45 45 52 61 16 61 45 16
0 0 0 0 0 0 0 0 13 0 0 0 0 0 0 0 0 0 0 0 0 0 0 0 0 0 0 0 0 0 0 0 0 0 6 16 26 32 45 74 68 65 61 68 68 48 65 65 45
0 0 0 0 0 0 0 0 0 0 0 0 0 0 0 0 0 0 0 0 0 0 0 0 0 0 0 0 0 0 0 0 0 0 0 0 3 3 23 48 48 61 68 68 77 58 74 58 39
0 0 0 0 0 0 0 0 0 0 0 0 0 0 0 0 0 0 0 0 0 0 0 0 0 0 0 0 0 0 0 0 0 0 0 0 0 0 3 6 23 3 3 42 65 61 35 45 45

GEFSSGP_con_cape1000_012.txt.gz
Probability
0 0 0 0 0 0 0 0 0 0 0 0 3 13 6 6 0 0 0 0 0 39 100 100 100 100 100 100 97 87 81 84 71 58 74 68 55 61 77 100 100 100 100 100 100 100 100 100 100
0 0 0 0 0 0 0 0 0 0 0 0 0 0 0 3 13 3 0 0 0 45 97 100 100 100 100 100 100 94 94 100 81 77 68 35 16 29 61 84 97 97 97 97 97 97 94 90 84
0 0 0 0 0 0 0 0 0 0 0 0 0 0 0 3 39 6 0 0 3 32 84 100 100 100 100 100 100 100 100 100 100 90 45 35 42 39 29 26 45 58 61 65 65 48 52 55 39
0 0 0 0 0 0 0 0 0 0 0 0 0 0 0 0 32 6 3 0 3 3 74 100 100 100 100 100 100 100 100 100 100 100 71 65 81 87 68 48 26 26 10 3 6 10 10 16 16
0 0 0 0 0 0 0 0 0 0 0 0 0 0 0 10 16 3 3 0 0 3 71 100 100 100 100 100 100 100 100 100 100 100 100 97 97 97 100 94 77 68 61 58 52 48 35 32 26
0 0 0 0 0 0 0 0 0 0 0 0 0 0 0 6 16 3 0 0 0 10 68 100 100 100 100 100 100 100 100 100 100 100 100 100 100 100 100 100 94 94 94 94 97 97 100 100 100
0 0 0 0 0 0 0 0 0 0 0 0 0 0 0 3 6 3 0 0 0 6 39 100 100 100 100 100 100 100 100 100 100 100 100 100 100 100 100 100 100 97 97 100 100 100 100 100 100
0 0 0 0 0 0 0 0 0 0 0 0 3 0 0 0 6 0 0 3 0 3 13 81 100 100 100 100 100 100 100 100 100 100 100 100 100 100 100 100 100 100 100 100 100 100 100 100 100
0 0 0 0 0 0 0 0 0 0 0 3 6 0 0 0 6 10 6 13 3 0 3 39 94 100 100 100 100 100 100 100 100 100 100 100 100 100 100 100 100 100 100 100 100 100 100 100 100
0 0 0 0 0 0 0 0 0 6 3 6 6 0 3 0 3 6 16 71 39 13 3 13 52 74 97 100 100 100 100 100 100 100 100 100 100 97 100 100 100 100 100 100 100 100 100 100 100
0 0 0 0 0 0 0 0 0 0 6 10 6 3 0 0 3 6 13 74 100 74 23 6 13 35 65 55 81 100 100 100 100 100 100 100 97 94 100 90 100 100 100 100 100 100 100 100 100
0 0 0 0 0 0 0 0 0 0 3 3 3 0 0 0 0 3 10 35 90 81 35 16 10 32 42 32 65 100 97 100 100 100 100 94 94 97 90 84 68 71 87 97 100 100 100 100 97
0 0 0 0 0 0 0 0 0 3 3 3 13 0 0 0 0 0 0 13 55 71 61 29 19 58 58 74 97 97 84 100 100 94 94 100 100 100 65 45 39 42 42 65 68 65 58 58 68
0 0 0 0 0 0 0 0 0 3 16 61 32 0 0 0 0 0 6 10 19 61 68 61 77 94 90 94 97 94 97 100 100 100 100 100 100 71 23 6 6 6 19 26 16 6 3 3 3
0 0 0 0 0 0 0 0 0 3 39 65 65 32 13 6 6 16 16 19 16 29 42 48 68 84 84 90 97 97 97 100 100 100 100 100 94 61 19 6 3 3 3 3 3 3 0 0 0
0 0 0 0 0 0 0 0 0 6 35 71 81 52 35 16 13 10 13 0 0 6 16 26 42 61 65 71 81 87 94 97 100 100 97 100 94 77 45 13 3 0 0 0 0 0 0 0 0
0 0 0 0 0 0 0 0 0 0 26 65 45 35 19 6 3 0 3 0 0 0 3 10 16 23 45 61 74 77 81 94 100 97 94 97 97 90 23 0 0 0 0 0 0 0 0 0 0
0 0 0 0 0 0 0 0 0 3 35 55 19 16 3 3 0 0 0 3 3 0 3 3 10 13 23 35 52 74 77 77 77 77 68 68 45 58 10 3 0 0 0 0 0 0 0 0 0
0 0 0 0 0 0 0 6 6 13 19 10 6 3 0 0 0 0 0 3 3 0 0 0 3 13 19 32 48 55 58 61 61 52 45 19 3 16 3 0 0 0 0 0 0 0 0 0 0
0 0 0 0 0 0 3 10 32 23 10 0 0 0 0 0 0 0 0 0 0 0 0 0 0 10 16 32 45 39 29 19 23 23 13 13 0 0 0 0 0 0 0 0 0 0 0 0 0
0 0 0 0 0 0 0 10 23 16 3 3 0 0 0 0 0 0 0 0 0 0 0 0 0 0 0 3 6 3 0 0 0 0 0 0 0 0 0 0 0 0 0 0 0 0 0 0 0
0 0 0 0 0 0 0 0 3 3 3 0 0 0 0 0 0 0 0 0 0 0 0 0 0 0 0 0 0 3 3 0 0 0 0 0 0 0 0 0 0 0 0 0 0 0 0 0 0
0 0 0 0 0 0 0 0 0 3 0 0 0 0 0 0 0 0 0 0 0 0 0 0 0 0 0 0 0 0 0 0 0 0 0 0 0 0 0 0 0 0 0 0 0 0 0 0 0
0 0 0 0 0 0 0 0 0 3 0 0 0 0 0 0 0 0 0 0 0 0 0 0 0 0 0 0 0 0 0 0 0 0 0 0 0 0 0 0 0 0 0 0 0 0 0 0 0
0 0 0 0 0 0 0 0 0 0 0 0 0 0 0 0 0 0 0 0 0 0 0 0 0 0 0 0 0 0 0 0 0 0 0 0 0 0 0 0 0 0 0 0 0 0 0 0 0
0 0 0 0 0 0 0 0 0 0 0 0 0 0 0 0 0 0 0 0 0 0 0 0 0 0 0 0 0 0 0 0 0 0 0 0 0 0 0 0 0 0 0 0 0 0 0 0 0
0 0 0 0 0 0 0 0 0 0 0 0 0 0 0 0 0 0 0 0 0 0 0 0 0 0 0 0 0 0 0 0 0 0 0 0 0 0 0 0 0 0 0 0 0 0 0 0 0
0 0 0 0 0 0 0 0 0 0 0 0 0 0 0 0 0 0 0 0 0 0 0 0 0 0 0 0 0 0 0 0 0 0 0 0 0 0 0 0 0 0 0 0 0 0 0 0 0
0 0 0 0 0 0 0 0 0 0 0 0 0 0 0 0 0 0 0 0 0 0 0 0 0 0 0 0 0 0 0 0 0 0 0 0 0 0 0 0 0 0 0 0 0 0 0 0 0
0 0 0 0 0 0 0 0 0 0 0 0 0 0 0 0 0 0 0 0 0 0 0 0 0 0 0 0 0 0 0 0 0 0 0 0 0 0 0 0 0 0 0 0 0 0 0 0 0

GEFSSGP_con_cape1000_018.txt.gz
Probability
0 0 0 0 0 0 0 0 0 0 0 0 0 0 0 0 0 0 0 0 0 3 100 100 100 97 97 87 71 71 87 100 100 100 100 100 100 100 100 100 100 100 100 100 100 100 100 100 100
0 0 0 0 0 0 0 0 0 0 0 0 0 0 0 6 10 0 0 0 0 39 100 100 100 100 100 97 90 77 87 97 97 100 100 100 100 100 100 100 100 100 100 100 100 100 100 100 97
0 0 0 0 0 0 0 0 0 0 0 0 0 0 0 13 32 0 0 0 0 65 100 100 100 100 100 100 94 84 81 87 94 94 100 100 100 100 100 100 100 100 100 100 100 97 97 94 97
0 0 0 0 0 0 0 0 0 0 0 0 0 0 0 26 39 0 0 0 39 84 100 100 100 100 100 100 97 94 90 77 90 94 100 97 97 100 100 100 100 100 97 97 97 94 87 84 81
0 0 0 0 0 0 0 0 0 0 0 0 0 0 0 32 13 0 0 3 52 90 97 100 100 100 100 100 100 97 97 94 94 97 97 87 97 94 94 97 94 87 74 77 74 68 58 48 45
0 0 0 0 0 0 0 0 0 0 0 0 0 0 0 29 6 3 0 3 65 94 100 100 100 100 100 100 100 100 100 100 100 97 97 94 94 97 97 94 90 94 94 97 97 94 90 100 100
0 0 0 0 0 0 0 0 0 0 0 0 0 0 0 23 35 10 3 10 68 94 100 100 100 100 100 100 100 100 100 100 100 100 97 97 100 100 100 100 100 100 100 100 100 100 100 100 100
0 0 0 0 0 0 0 0 0 0 0 0 0 0 0 16 45 19 13 6 55 97 100 100 100 100 100 100 100 100 100 100 100 100 100 100 100 100 100 100 100 100 100 100 100 100 100 100 100
0 0 0 0 0 0 0 0 0 0 0 0 3 0 0 23 45 13 6 3 29 84 100 100 100 100 100 100 100 100 100 100 100 100 100 100 100 100 100 100 100 100 100 100 100 100 100 100 100
0 0 0 0 0 0 0 0 0 0 0 0 0 3 13 55 48 16 0 0 16 39 77 90 90 90 84 94 90 90 97 100 100 100 100 100 100 100 100 100 100 100 100 100 100 100 100 100 100
0 0 0 0 0 0 0 0 0 0 0 0 0 0 48 58 39 35 19 10 6 6 35 48 55 65 71 74 74 84 90 90 97 100 100 100 100 100 100 100 100 100 100 100 100 100 94 94 97
0 0 0 0 0 0 0 0 0 0 0 0 0 3 35 42 48 48 58 45 29 13 13 13 39 42 45 52 55 71 81 84 87 94 100 100 100 100 100 100 100 100 100 100 97 94 94 97 97
0 0 0 0 0 0 0 0 0 0 3 3 0 10 23 29 23 32 42 45 35 23 19 19 23 26 23 29 39 45 58 68 77 84 90 97 94 90 81 74 77 77 71 58 55 52 65 71 87
0 0 0 0 0 0 0 0 0 3 3 6 6 0 3 3 6 3 13 6 10 13 13 13 13 16 16 16 19 29 39 48 58 61 71 74 77 58 42 29 26 13 16 16 6 6 16 23 23
0 0 0 0 0 0 0 0 0 0 0 10 6 6 3 3 3 3 0 0 0 0 3 3 10 6 6 6 6 10 16 23 39 39 39 48 58 55 29 10 0 0 0 0 0 0 0 0 0
0 0 0 0 0 0 0 6 3 0 0 6 10 10 6 3 3 0 0 0 0 0 0 0 0 3 3 3 3 6 10 16 29 26 42 52 61 58 35 3 0 0 0 0 0 0 0 0 0
0 0 0 0 0 0 0 3 0 6 0 0 3 3 3 3 0 0 0 0 0 0 0 0 0 0 0 3 3 10 10 13 26 29 39 42 65 61 13 0 0 0 0 0 0 0 0 0 0
0 0 0 0 0 0 0 0 0 3 3 3 0 0 0 0 0 0 3 3 0 0 0 0 0 0 0 0 0 0 0 3 6 23 26 39 42 55 0 0 0 0 0 0 0 0 0 0 0
0 0 0 0 0 3 0 0 0 0 0 0 0 0 0 0 0 0 0 0 0 0 0 0 0 0 0 0 0 0 0 0 3 10 29 32 32 48 3 0 0 0 0 0 0 0 0 0 0
0 0 0 3 10 3 3 3 3 0 0 0 0 0 0 0 0 0 0 0 0 0 0 0 0 0 0 0 0 0 0 0 0 3 6 13 16 16 13 0 0 0 0 0 0 0 0 0 0
0 0 0 0 3 3 0 0 3 0 0 0 0 0 0 0 0 0 0 0 0 0 0 0 0 0 0 0 0 0 0 0 0 0 0 0 3 0 0 0 0 0 0 0 0 0 0 0 0
0 0 0 0 0 0 0 0 0 0 0 0 0 0 0 0 0 0 0 0 0 0 0 0 0 0 0 0 0 0 0 0 0 0 0 0 0 0 0 0 0 0 0 0 0 0 0 0 0
0 0 0 0 0 0 0 0 0 0 0 0 0 0 0 0 0 0 0 0 0 0 0 0 0 0 0 0 0 0 0 0 0 0 0 0 0 0 0 0 0 0 0 0 0 0 0 0 0
0 0 0 0 0 0 0 0 0 0 0 0 0 0 0 0 0 0 0 0 0 0 0 0 0 0 0 0 0 0 0 0 0 0 0 0 0 0 0 0 0 0 0 0 0 0 0 0 0
0 0 0 0 0 0 0 0 0 0 0 0 0 0 0 0 0 0 0 0 0 0 0 0 0 0 0 0 0 0 0 0 0 0 0 0 0 0 0 0 0 0 0 0 0 0 0 0 0
0 0 0 0 0 0 0 0 0 0 0 0 0 0 0 0 0 0 0 0 0 0 0 0 0 0 0 0 0 0 0 0 0 0 0 0 0 0 0 0 0 0 0 0 0 0 0 0 0
0 0 0 0 0 0 0 0 0 0 0 0 0 0 0 0 0 0 0 0 0 0 0 0 0 0 0 0 0 0 0 0 0 0 0 0 0 0 0 0 0 0 0 0 0 0 0 0 0
0 0 0 0 0 0 0 0 0 0 0 0 0 0 0 0 0 0 0 0 0 0 0 0 0 0 0 0 0 0 0 0 0 0 0 0 0 0 0 0 0 0 0 0 0 0 0 0 0
0 0 0 0 0 0 0 0 0 0 0 0 0 0 0 0 0 0 0 0 0 0 0 0 0 0 0 0 0 0 0 0 0 0 0 0 0 0 0 0 0 0 0 0 0 0 0 0 0
0 0 0 0 0 0 0 0 0 0 0 0 0 0 0 0 0 0 0 0 0 0 0 0 0 0 0 0 0 0 0 0 0 0 0 0 0 0 0 0 0 0 0 0 0 0 0 0 0

GEFSSGP_con_cape1000_024.txt.gz
Probability
0 0 0 0 94 45 0 0 0 0 0 0 0 0 0 0 0 16 97 61 10 97 100 100 100 100 100 100 100 100 100 100 100 100 100 100 100 100 100 100 100 100 100 100 100 100 100 100 97
0 0 0 10 16 0 0 0 0 0 0 0 0 0 0 0 45 84 74 35 16 97 100 97 100 100 100 100 100 100 100 100 100 100 100 100 100 100 100 100 100 100 100 100 100 100 97 97 90
0 0 0 0 0 0 0 0 0 0 0 0 0 0 0 6 48 58 39 6 16 90 100 100 100 100 100 97 97 100 100 100 100 100 100 100 100 100 100 100 100 100 100 100 100 97 90 74 74
0 0 0 0 0 0 0 0 0 0 0 0 0 0 13 87 71 29 10 0 13 84 100 100 100 100 100 100 97 100 100 100 100 100 100 100 100 100 100 100 100 100 100 100 100 100 90 74 52
0 0 0 0 0 0 0 0 0 0 0 0 0 0 42 100 65 6 3 0 16 39 84 100 100 100 100 100 97 100 97 100 100 100 100 100 100 100 100 100 100 100 100 100 100 97 90 74 65
0 0 0 0 0 0 0 0 0 0 0 0 0 0 71 100 65 35 13 10 10 26 65 100 100 100 100 100 97 97 90 84 94 97 100 100 100 100 100 100 100 100 97 94 87 84 84 84 84
0 0 0 0 0 0 0 0 0 0 0 0 0 0 77 100 87 61 48 39 13 19 58 100 100 100 100 100 100 100 97 90 94 100 97 97 97 100 100 100 100 97 94 90 87 87 87 90 97
0 0 0 0 0 0 0 0 0 0 0 0 0 0 61 100 100 87 87 84 68 55 74 100 100 100 100 100 100 100 100 100 100 100 94 94 90 97 100 100 100 100 100 100 100 100 100 100 100
0 0 0 0 0 0 0 0 0 0 0 10 29 45 77 100 100 100 100 94 94 97 100 100 100 100 100 100 100 100 100 100 100 100 100 100 61 13 94 90 100 100 100 100 100 100 100 100 100
0 0 0 0 0 0 0 0 0 0 0 10 45 74 90 100 100 100 100 100 100 100 100 100 100 100 100 94 94 100 100 100 100 100 100 100 84 81 52 90 100 100 100 100 100 100 100 100 100
0 0 0 0 0 0 0 0 0 0 6 48 65 77 87 100 100 100 100 100 100 100 100 97 90 94 97 94 90 94 94 100 100 100 100 100 97 97 90 84 100 100 100 100 100 100 100 100 100
0 0 0 0 0 0 0 0 0 19 26 61 74 84 90 100 100 100 100 97 100 94 94 94 94 90 84 84 84 84 87 87 87 94 97 97 97 97 100 100 97 100 100 100 100 100 100 100 100
0 0 0 0 0 0 0 0 0 6 32 55 74 84 90 97 97 94 90 87 90 87 84 71 65 65 61 65 55 45 65 71 71 84 81 90 90 94 97 94 100 97 90 97 100 100 100 100 100
0 0 0 0 0 0 0 0 3 10 23 35 55 71 68 68 71 77 81 81 74 68 61 58 55 52 61 58 55 45 42 58 48 55 65 71 87 87 90 94 97 94 94 90 94 84 90 87 87
0 0 0 0 0 0 0 3 10 10 23 16 19 13 19 16 32 35 42 39 42 45 45 45 32 29 29 29 29 26 23 23 32 48 48 52 58 74 71 77 84 90 94 94 94 87 94 77 77
0 0 0 0 0 0 0 10 6 6 13 10 10 10 13 10 10 10 10 19 19 23 26 39 16 19 26 29 55 23 19 16 13 29 26 32 32 42 52 58 71 77 84 90 90 77 61 65 71
0 0 0 0 0 0 6 23 10 6 10 13 13 10 13 10 10 16 16 23 32 42 39 39 39 32 35 39 55 39 52 39 23 19 19 19 19 26 29 39 45 61 65 71 45 52 58 58 61
0 0 0 10 16 10 26 19 3 10 3 3 6 6 10 13 19 10 16 13 23 29 35 39 23 45 35 26 39 48 52 19 13 13 6 3 13 10 19 23 32 35 45 45 52 61 77 68 58
0 0 0 35 32 32 35 23 19 16 13 10 6 10 19 16 6 6 3 6 13 16 16 19 16 23 26 13 19 26 32 42 19 16 6 6 10 16 23 16 32 29 32 32 16 23 19 35 26
0 3 6 55 45 32 32 23 23 23 13 10 10 10 13 3 3 3 3 0 0 0 0 0 3 6 6 19 23 26 39 29 23 29 29 3 6 13 16 29 39 35 52 45 32 35 16 3 6
0 3 3 58 65 39 35 26 19 10 6 3 0 3 0 0 0 0 0 0 0 0 0 0 0 0 0 0 0 3 16 19 13 13 10 0 3 10 19 32 39 48 29 35 65 55 23 0 3
0 0 3 32 68 42 23 6 26 10 6 6 3 3 0 0 0 0 0 0 0 0 0 0 0 0 0 0 0 0 0 0 3 0 0 0 0 0 3 19 45 55 68 74 52 39 23 10 0
0 0 3 26 13 0 0 0 19 3 3 3 0 0 0 0 0 0 0 0 0 0 0 0 0 0 0 0 0 0 0 0 0 0 0 0 0 0 0 0 29 48 52 65 65 58 45 16 3
0 3 3 3 0 0 0 0 3 13 6 3 0 0 0 0 0 0 0 0 0 0 0 0 0 0 0 0 0 0 0 0 0 0 0 0 0 0 0 0 0 13 26 45 61 74 71 45 19
0 0 0 0 0 0 0 0 16 6 0 3 3 0 0 0 0 0 0 0 0 0 0 0 0 0 0 0 0 0 0 0 0 0 0 0 0 0 0 0 0 0 3 10 23 55 65 81 74
0 0 0 0 0 0 0 0 16 3 0 0 0 0 0 0 0 0 0 0 0 0 0 0 0 0 0 0 0 0 0 0 0 0 0 0 0 0 0 0 0 0 0 0 3 6 29 48 61
0 0 0 0 0 0 0 3 0 0 0 0 0 0 0 0 0 0 0 0 0 0 0 0 0 0 0 0 0 0 0 0 0 0 0 0 0 0 0 0 0 0 0 0 0 0 0 6 23
0 0 0 0 0 0 0 0 0 0 0 0 0 0 0 0 0 0 0 0 0 0 0 0 0 0 0 0 0 0 0 0 0 0 0 0 0 0 0 0 0 0 0 0 0 0 0 0 0
0 0 0 0 0 0 0 0 0 0 0 0 0 0 0 0 0 0 0 0 0 0 0 0 0 0 0 0 0 0 0 0 0 0 0 0 0 0 0 0 0 0 0 0 0 0 0 0 0
0 0 0 0 0 0 0 0 0 0 0 0 0 0 0 0 0 0 0 0 0 0 0 0 0 0 0 0 0 0 0 0 0 0 0 0 0 0 0 0 0 0 0 0 0 0 0 0 0

GEFSSGP_con_cape1000_030.txt.gz
Probability
0 0 0 0 74 94 42 0 0 0 0 0 0 0 0 3 35 74 58 90 100 100 100 100 100 100 100 100 100 100 100 100 100 100 100 100 100 100 100 100 100 100 94 97 100 100 100 100 97
0 0 0 45 100 58 0 0 0 0 0 0 0 0 3 3 10 52 52 94 100 100 100 100 100 100 100 100 100 100 100 100 100 100 100 100 100 100 100 100 100 97 97 97 100 100 100 97 97
0 3 0 61 61 0 0 0 0 0 0 0 0 3 0 6 3 29 26 94 100 100 100 100 100 100 100 100 100 100 100 100 100 100 100 100 100 100 100 100 100 100 100 100 100 100 97 94 97
6 0 0 0 0 0 0 0 0 0 0 0 3 13 10 6 6 6 16 94 100 100 100 100 100 100 100 100 100 100 100 100 100 100 100 100 100 100 100 97 100 100 100 100 100 100 100 94 97
0 0 0 0 0 0 0 0 0 0 0 0 16 48 19 13 3 3 19 87 100 100 100 100 100 100 100 100 100 100 100 100 100 100 100 100 100 100 97 100 100 100 100 100 100 100 100 97 94
0 0 0 0 0 0 0 0 0 0 0 0 26 74 42 10 0 3 16 35 84 97 100 100 100 100 100 100 100 100 100 100 100 100 100 100 100 100 100 100 100 100 100 100 100 100 100 100 100
0 0 0 0 0 0 0 0 0 0 0 3 23 68 61 16 6 3 10 16 81 97 100 100 100 100 100 100 100 100 100 100 100 100 100 100 100 100 100 100 100 100 100 100 100 100 94 97 97
0 0 0 0 0 0 0 0 0 0 3 23 32 71 77 58 23 13 10 16 74 97 100 100 100 100 100 100 100 100 100 100 100 100 100 100 100 100 100 100 100 100 100 100 100 97 97 97 97
0 0 0 0 0 0 0 0 0 0 16 42 58 71 84 77 55 32 26 29 74 94 100 100 100 100 100 100 100 100 100 100 100 100 100 100 100 97 100 100 100 100 100 97 97 100 100 100 100
0 0 0 0 0 0 0 0 0 0 26 58 65 77 81 81 81 71 65 65 68 84 90 100 100 100 100 100 100 100 100 100 100 100 100 100 100 100 90 100 100 100 97 97 97 100 100 100 100
0 0 0 0 0 0 0 0 3 6 39 52 68 84 84 87 94 97 90 87 84 87 100 100 100 97 97 97 97 97 100 100 100 100 100 100 100 94 77 81 100 97 97 97 97 97 97 97 87
0 0 0 0 0 0 0 3 16 39 52 58 74 81 84 97 97 97 100 100 100 100 97 90 90 94 97 97 94 94 90 94 94 97 97 100 100 97 94 87 84 84 84 90 94 94 97 97 97
0 0 0 0 0 0 6 6 23 32 45 68 87 94 97 94 94 97 100 100 97 90 87 90 94 97 100 100 94 94 94 87 84 97 97 94 94 94 94 94 94 87 74 71 71 74 77 77 87
0 0 0 0 0 3 6 10 16 42 58 74 84 81 84 87 87 84 77 74 84 84 87 87 87 94 97 97 97 97 90 90 90 90 94 90 94 94 90 90 87 68 48 42 58 48 52 71 71
0 0 0 0 0 0 10 16 35 45 65 74 74 77 77 71 71 68 65 61 74 74 81 81 71 84 90 90 87 87 90 84 90 94 90 90 87 87 84 81 68 52 42 42 39 32 39 35 45
0 0 0 0 0 0 3 45 42 52 65 77 74 71 68 58 52 65 65 68 71 74 77 74 29 52 65 71 81 68 74 87 94 94 87 84 87 81 68 55 45 39 29 26 23 23 23 10 19
0 0 0 0 0 0 6 65 52 55 71 74 71 68 58 61 58 61 55 52 58 68 81 81 68 45 45 48 55 58 71 77 87 90 84 77 71 61 48 48 39 23 13 13 10 13 10 10 6
0 0 0 0 3 3 19 52 55 58 71 65 65 61 58 42 35 26 26 29 35 45 65 55 52 52 42 39 35 26 26 42 42 68 84 77 71 55 48 35 29 6 3 0 0 6 13 10 13
0 0 0 3 3 6 19 32 52 65 68 68 65 55 39 19 13 13 13 13 13 16 26 39 42 61 61 55 13 16 16 19 26 35 45 35 32 45 58 23 29 10 3 0 0 3 0 10 10
0 0 0 3 3 3 19 23 42 58 71 68 61 42 32 16 6 6 10 6 6 10 16 13 26 35 42 48 39 23 26 6 3 19 16 19 10 10 6 35 23 23 13 6 0 0 3 3 3
0 0 0 0 3 3 13 16 26 39 45 52 42 23 16 10 6 0 0 3 0 6 3 0 23 23 29 29 0 0 0 0 0 0 10 3 3 3 10 13 23 19 16 6 0 3 3 3 0
0 0 0 0 3 3 3 16 26 23 26 23 13 10 3 3 0 0 0 0 0 0 0 0 0 3 10 3 0 0 0 0 0 0 0 0 0 0 0 3 6 10 13 10 6 0 3 6 3
0 0 0 0 0 0 0 0 6 13 13 19 13 3 0 0 0 0 0 0 0 0 0 0 3 0 0 0 0 0 0 0 0 0 0 0 0 0 0 0 3 3 10 10 6 3 3 6 0
0 0 0 0 0 0 0 0 13 10 13 16 10 3 3 0 0 0 0 0 0 0 0 0 0 0 0 0 0 0 0 0 0 0 0 0 0 0 0 0 3 3 0 6 3 3 3 3 3
0 0 3 3 0 0 0 0 13 19 10 10 6 6 3 0 0 0 0 0 0 0 0 0 0 0 0 0 0 0 0 0 0 0 0 0 0 0 0 0 0 0 0 0 3 6 6 6 6
0 0 0 0 0 0 0 3 32 10 13 6 0 0 0 0 0 0 0 0 0 0 0 0 0 0 0 0 0 0 0 0 0 0 0 0 0 0 0 0 0 0 0 0 0 0 3 3 6
0 0 0 0 0 0 0 35 10 3 0 0 0 0 0 0 0 0 0 0 0 0 0 0 0 0 0 0 0 0 0 0 0 0 0 0 0 0 0 0 0 0 0 0 0 0 0 0 3
0 0 0 0 3 0 0 16 39 3 3 0 0 0 0 0 0 0 0 0 0 0 0 0 0 0 0 0 0 0 0 0 0 0 0 0 0 0 0 0 0 0 0 0 0 0 0 0 0
0 0 0 0 0 0 0 0 0 0 0 0 0 0 0 0 0 0 0 0 0 0 0 0 0 0 0 0 0 0 0 0 0 0 0 0 0 0 0 0 0 0 0 0 0 0 0 0 0
0 0 0 0 0 0 0 0 0 0 0 0 0 0 0 0 0 0 0 0 0 0 0 0 0 0 0 0 0 0 0 0 0 0 0 0 0 0 0 0 0 0 0 0 0 0 0 0 0

GEFSSGP_con_cape1000_036.txt.gz
Probability
0 0 0 0 0 0 29 32 3 0 0 0 0 10 32 71 87 94 97 100 94 97 100 100 100 100 100 100 100 100 100 100 100 100 100 100 100 100 100 100 100 100 100 100 100 100 100 100 100
0 0 0 0 0 10 6 0 0 0 0 0 0 0 16 74 97 100 97 100 97 100 100 100 100 100 100 100 100 100 100 100 100 100 100 100 100 100 100 100 100 100 100 100 100 100 100 100 100
0 0 0 0 10 16 3 0 0 0 0 0 0 0 0 35 97 100 97 100 100 100 100 100 100 100 100 100 100 100 100 100 100 100 100 100 100 100 100 100 100 100 100 100 100 100 100 100 100
0 0 0 0 0 3 0 0 0 0 0 3 0 0 0 10 81 100 97 97 100 100 100 100 100 100 100 100 100 100 100 100 100 100 100 100 100 100 100 100 100 100 100 100 100 100 100 97 100
0 0 0 0 0 0 0 0 6 6 10 6 3 0 0 39 97 100 100 97 100 100 100 100 100 100 100 100 100 100 100 100 100 100 100 100 100 100 100 100 100 100 100 100 100 100 100 97 97
0 0 0 0 0 0 0 3 10 16 13 13 10 3 0 58 94 97 100 100 100 100 100 100 100 100 100 100 100 100 100 100 100 100 100 100 100 100 100 100 100 100 100 100 100 100 100 100 100
0 0 0 0 0 0 0 0 10 19 35 23 26 10 0 29 87 97 100 100 100 100 100 100 100 100 100 100 100 100 100 100 100 100 100 100 100 100 100 100 100 100 100 100 100 100 100 100 100
0 0 0 0 0 0 3 6 29 45 55 55 32 19 6 19 71 97 100 97 94 100 100 100 100 100 100 100 100 100 100 100 100 100 100 100 100 100 100 100 100 100 100 100 100 100 100 100 100
0 0 0 0 0 0 3 19 52 68 71 68 61 32 19 48 87 94 97 94 94 94 97 97 97 97 100 100 100 100 100 100 100 100 100 100 100 100 100 100 100 100 100 100 100 100 100 100 100
0 0 0 0 0 0 13 23 52 77 77 74 74 74 61 65 87 87 94 94 94 87 87 90 94 90 97 100 100 100 100 100 100 100 100 100 100 97 100 100 100 100 100 100 100 100 100 97 97
0 0 0 0 0 0 16 35 55 81 81 77 81 84 65 71 77 84 81 74 81 77 81 68 74 74 81 87 90 90 97 97 100 97 97 97 100 97 90 87 87 87 90 94 87 94 87 90 84
0 0 0 0 0 6 16 32 48 74 87 90 87 84 84 81 61 52 55 48 42 48 55 42 39 35 52 55 58 55 55 68 74 90 87 87 81 74 71 52 29 45 68 71 81 77 77 84 81
0 0 0 0 0 10 32 42 55 68 81 77 74 71 65 55 45 45 42 39 23 35 23 26 29 23 29 26 23 29 23 32 42 52 61 61 58 55 42 29 19 26 23 23 42 52 48 42 55
0 0 0 3 6 10 45 55 58 61 71 71 61 58 52 42 35 39 29 29 26 13 10 13 10 6 10 13 10 19 19 13 16 16 39 45 32 35 39 35 29 10 16 10 10 10 16 19 26
0 0 0 3 3 3 23 42 55 52 68 61 48 52 42 32 35 32 29 23 16 16 10 13 6 0 3 6 6 6 10 10 6 10 13 16 23 16 16 16 3 3 3 0 3 3 3 3 6
0 0 0 0 0 0 10 42 52 32 52 52 48 45 42 29 26 29 26 19 13 6 6 10 6 3 3 0 0 0 0 0 3 0 3 6 10 16 10 6 3 0 0 0 0 0 0 0 3
0 0 0 0 0 3 10 19 35 26 35 39 32 39 35 32 29 29 19 13 13 6 3 0 0 0 0 0 0 0 0 0 0 0 3 6 6 10 3 3 0 0 0 0 0 0 0 0 0
0 0 0 0 0 3 6 10 23 26 35 32 29 35 32 35 26 19 19 13 6 3 0 0 0 0 0 0 0 0 0 0 0 0 0 0 0 0 0 3 0 0 0 0 0 0 0 0 0
0 0 0 0 3 3 6 10 13 19 19 26 19 13 13 10 19 13 16 10 3 3 0 0 0 0 0 0 0 0 0 0 0 0 0 0 0 0 0 0 0 0 0 0 0 0 0 0 0
0 0 0 0 3 3 6 10 10 13 6 6 13 16 10 6 6 10 10 3 3 3 0 0 0 0 0 0 0 0 0 0 0 0 0 0 0 0 0 0 0 0 0 0 0 0 0 0 0
0 0 0 0 0 0 3 10 6 10 6 6 13 10 6 3 6 6 3 3 3 3 0 0 0 0 0 0 0 0 0 0 0 0 0 0 0 0 0 0 0 0 0 0 0 0 0 0 0
0 0 0 0 0 0 0 0 0 3 0 0 3 6 3 0 0 3 3 0 0 0 0 0 0 0 0 0 0 0 0 0 0 0 0 0 0 0 0 0 0 0 0 0 0 0 0 0 0
0 0 0 0 0 0 0 0 0 0 0 0 0 0 0 0 0 0 0 0 0 0 0 0 0 0 0 0 0 0 0 0 0 0 0 0 0 0 0 0 0 0 0 0 0 0 0 0 0
0 0 0 0 0 0 0 0 0 0 0 0 0 0 0 0 0 0 0 0 0 0 0 0 0 0 0 0 0 0 0 0 0 0 0 0 0 0 0 0 0 0 0 0 0 0 0 0 0
0 0 0 0 0 0 0 0 0 0 0 0 0 0 0 0 0 0 0 0 0 0 0 0 0 0 0 0 0 0 0 0 0 0 0 0 0 0 0 0 0 0 0 0 0 0 0 0 0
0 0 0 0 0 0 0 0 0 0 0 0 0 0 0 0 0 0 0 0 0 0 0 0 0 0 0 0 0 0 0 0 0 0 0 0 0 0 0 0 0 0 0 0 0 0 0 0 0
0 0 0 0 0 0 0 0 0 0 0 0 0 0 0 0 0 0 0 0 0 0 0 0 0 0 0 0 0 0 0 0 0 0 0 0 0 0 0 0 0 0 0 0 0 0 0 0 0
0 0 0 0 0 0 0 0 0 0 0 0 0 0 0 0 0 0 0 0 0 0 0 0 0 0 0 0 0 0 0 0 0 0 0 0 0 0 0 0 0 0 0 0 0 0 0 0 0
0 0 0 0 0 0 0 0 0 0 0 0 0 0 0 0 0 0 0 0 0 0 0 0 0 0 0 0 0 0 0 0 0 0 0 0 0 0 0 0 0 0 0 0 0 0 0 0 0
0 0 0 0 0 0 0 0 0 0 0 0 0 0 0 0 0 0 0 0 0 0 0 0 0 0 0 0 0 0 0 0 0 0 0 0 0 0 0 0 0 0 0 0 0 0 0 0 0

GEFSSGP_con_cape1000_042.txt.gz
Probability
23 0 0 0 0 0 0 0 26 3 0 16 45 74 90 97 87 65 87 94 100 100 100 100 100 100 100 100 100 100 100 100 100 100 100 100 100 100 100 100 100 100 100 100 100 100 100 100 100
0 0 0 0 0 0 0 0 6 3 0 0 19 65 97 100 100 100 97 100 100 100 100 100 100 100 100 100 100 100 100 100 100 100 100 100 100 100 100 100 100 100 100 100 100 100 100 100 100
0 0 0 0 0 0 0 0 0 0 0 0 0 10 74 100 100 100 100 100 100 100 100 100 100 100 100 100 100 100 100 100 100 100 100 100 100 100 100 100 100 100 100 100 100 100 100 100 100
0 0 0 0 0 0 0 0 0 0 0 0 0 3 65 100 100 100 100 100 100 100 100 100 100 100 100 100 100 100 100 100 100 100 100 100 100 100 100 100 100 100 100 100 100 100 100 100 100
0 0 0 0 0 0 0 3 10 3 3 6 3 29 81 97 100 100 100 100 100 100 100 100 100 100 100 100 100 100 100 100 100 100 100 100 100 100 100 100 100 100 100 100 100 100 100 100 100
0 0 0 0 0 0 3 6 10 16 23 23 6 35 94 97 97 100 100 100 100 100 100 100 100 100 100 100 100 100 100 100 100 100 100 100 100 100 100 100 100 100 100 100 100 100 100 100 100
0 0 0 0 0 3 3 16 29 35 42 45 23 52 94 97 100 100 100 100 100 100 100 100 100 100 100 100 100 100 100 100 100 100 100 100 100 100 100 100 100 100 100 100 100 100 97 100 100
0 0 0 0 0 3 6 29 42 55 71 65 45 65 90 100 100 100 100 100 100 100 100 97 97 100 100 100 100 100 100 100 100 100 100 100 100 100 100 100 100 100 100 100 100 97 97 97 97
0 0 0 0 0 3 19 35 55 65 68 68 68 74 94 100 97 97 100 100 97 94 94 90 90 94 100 100 100 100 100 100 100 100 100 100 100 100 100 100 100 100 100 100 100 97 97 94 94
0 0 0 0 0 6 29 48 65 68 77 84 90 94 97 97 100 94 94 87 90 87 84 81 81 87 90 97 94 94 97 94 97 94 97 100 100 100 100 100 100 100 100 100 100 100 97 90 90
0 0 0 0 3 10 32 52 77 77 77 84 90 97 90 90 90 94 87 84 81 74 68 55 65 71 74 77 74 71 71 68 71 77 90 94 97 97 100 94 81 81 81 81 84 87 90 87 87
0 0 0 0 6 16 29 58 68 81 84 84 87 84 81 84 77 74 68 48 52 39 39 26 26 35 39 39 35 29 29 29 39 52 55 68 68 71 71 68 58 58 58 58 58 71 74 84 81
0 0 6 6 32 42 58 61 71 68 74 71 71 77 68 65 52 39 32 23 23 16 13 10 10 10 10 10 6 6 0 6 6 13 23 32 42 48 42 39 42 32 32 39 29 35 39 48 58
0 0 10 16 35 45 45 45 48 48 55 61 61 61 48 39 39 26 23 16 13 10 6 6 6 6 3 3 3 0 0 0 0 3 10 19 26 23 19 16 13 13 16 16 13 6 13 16 16
0 3 3 3 23 39 42 42 58 42 42 45 48 48 45 32 23 19 23 10 3 3 0 0 0 0 0 0 0 0 0 0 0 0 0 0 6 10 10 3 3 3 3 3 3 0 3 3 6
0 0 0 0 13 19 32 39 48 32 42 48 45 39 29 32 23 19 13 10 3 0 0 0 3 0 0 0 0 0 0 0 0 0 0 0 0 0 3 0 0 0 0 0 0 0 0 0 3
0 0 0 0 0 10 23 26 32 19 32 42 42 32 26 26 23 19 10 3 3 0 0 0 0 0 0 0 0 0 0 0 0 0 0 0 0 0 0 0 0 0 0 0 0 0 0 0 0
0 0 0 0 0 6 10 19 29 26 29 29 19 26 19 13 19 19 3 3 0 0 0 0 0 0 0 0 0 0 0 0 0 0 0 0 0 0 0 0 0 0 0 0 0 0 0 0 0
0 0 0 0 0 6 13 16 19 19 29 19 16 19 13 13 3 3 0 0 0 0 0 0 0 0 0 0 0 0 0 0 0 0 0 0 0 0 0 0 0 0 0 0 0 0 0 0 0
0 0 0 3 6 10 10 10 10 6 10 10 6 3 6 6 6 3 0 0 0 0 0 0 0 0 0 0 0 0 0 0 0 0 0 0 0 0 0 0 0 0 0 0 0 0 0 0 0
0 0 0 0 3 3 3 3 3 3 3 3 0 3 3 0 0 3 3 0 0 0 0 0 0 0 0 0 0 0 0 0 0 0 0 0 0 0 0 0 0 0 0 0 0 0 0 0 0
0 0 0 0 0 0 0 0 0 3 0 0 0 0 0 0 0 0 0 0 0 0 0 0 0 0 0 0 0 0 0 0 0 0 0 0 0 0 0 0 0 0 0 0 0 0 0 0 0
0 0 0 0 0 0 0 0 0 0 0 0 0 0 0 0 0 0 0 0 0 0 0 0 0 0 0 0 0 0 0 0 0 0 0 0 0 0 0 0 0 0 0 0 0 0 0 0 0
0 0 0 0 0 0 0 0 0 0 0 0 0 0 0 0 0 0 0 0 0 0 0 0 0 0 0 0 0 0 0 0 0 0 0 0 0 0 0 0 0 0 0 0 0 0 0 0 0
0 0 0 0 0 0 0 0 0 0 0 0 0 0 0 0 0 0 0 0 0 0 0 0 0 0 0 0 0 0 0 0 0 0 0 0 0 0 0 0 0 0 0 0 0 0 0 0 0
0 0 0 0 0 0 0 0 0 0 0 0 0 0 0 0 0 0 0 0 0 0 0 0 0 0 0 0 0 0 0 0 0 0 0 0 0 0 0 0 0 0 0 0 0 0 0 0 0
0 0 0 0 0 0 0 0 0 0 0 0 0 0 0 0 0 0 0 0 0 0 0 0 0 0 0 0 0 0 0 0 0 0 0 0 0 0 0 0 0 0 0 0 0 0 0 0 0
0 0 0 0 0 0 0 0 0 0 0 0 0 0 0 0 0 0 0 0 0 0 0 0 0 0 0 0 0 0 0 0 0 0 0 0 0 0 0 0 0 0 0 0 0 0 0 0 0
0 0 0 0 0 0 0 0 0 0 0 0 0 0 0 0 0 0 0 0 0 0 0 0 0 0 0 0 0 0 0 0 0 0 0 0 0 0 0 0 0 0 0 0 0 0 0 0 0
0 0 0 0 0 0 0 0 0 0 0 0 0 0 0 0 0 0 0 0 0 0 0 0 0 0 0 0 0 0 0 0 0 0 0 0 0 0 0 0 0 0 0 0 0 0 0 0 0

GEFSSGP_con_cape1000_048.txt.gz
Probability
45 6 0 0 29 52 0 3 10 16 42 58 68 74 81 90 94 100 100 87 97 100 100 100 100 100 100 100 100 100 100 100 100 100 100 100 100 100 100 100 100 100 97 97 97 100 100 100 100
23 0 0 6 42 0 0 3 13 19 32 26 42 45 58 90 100 97 100 100 97 100 100 100 100 100 100 100 100 100 100 100 100 100 100 100 100 100 100 100 100 100 100 100 100 97 94 100 100
0 0 0 10 16 0 0 6 23 6 6 6 35 65 71 90 97 97 100 100 90 100 100 100 100 100 100 100 100 100 100 100 100 100 100 100 100 100 100 100 100 100 100 100 100 97 94 94 94
0 0 3 10 0 3 3 16 23 10 13 16 42 65 100 100 100 100 100 97 90 100 100 100 100 100 100 100 100 100 100 100 100 100 100 100 100 100 100 100 100 100 100 100 100 97 94 94 97
0 0 3 0 0 3 19 23 26 29 29 42 52 84 100 100 100 100 100 97 90 97 100 100 100 100 100 100 100 100 100 100 100 100 100 100 100 100 100 100 100 100 100 100 100 100 100 97 97
0 0 0 0 0 6 32 39 39 42 71 74 81 94 100 100 100 100 100 97 87 90 100 100 100 100 100 100 100 100 100 100 100 100 100 100 100 100 100 100 100 100 100 100 100 100 100 100 100
0 0 0 0 0 13 52 55 52 68 77 90 94 97 100 100 100 100 100 97 87 90 97 100 100 100 100 100 100 100 100 100 100 100 100 100 100 100 100 100 100 100 100 100 100 100 100 100 100
0 0 0 0 3 13 39 61 68 81 90 94 97 97 100 100 100 100 97 97 97 94 94 100 100 100 100 100 100 100 100 100 100 97 97 97 100 100 100 100 100 100 100 100 100 100 100 100 100
0 0 0 0 3 16 29 48 71 87 90 97 97 100 100 100 100 97 97 100 100 100 94 94 90 100 100 94 97 100 94 94 94 97 97 97 97 100 100 100 100 100 100 100 100 100 100 100 100
0 0 0 0 0 16 26 48 68 81 97 97 100 100 100 100 100 100 94 90 90 90 97 97 97 97 94 90 97 97 90 90 87 94 97 97 97 97 97 97 100 100 100 100 100 100 100 100 94
0 0 0 0 3 16 23 42 74 65 84 97 97 100 100 100 100 94 90 84 90 94 84 90 94 97 90 90 90 90 74 71 68 71 74 87 87 90 90 94 97 97 100 100 97 90 90 97 97
0 0 3 10 26 23 26 52 74 87 97 97 97 97 97 100 97 94 94 94 94 97 90 87 84 90 84 84 74 74 48 45 52 55 55 68 77 84 77 77 84 81 84 87 87 87 87 90 87
0 0 10 42 39 45 55 74 87 97 100 100 100 97 97 100 100 100 97 94 94 90 87 84 77 77 81 74 48 29 35 26 32 35 35 45 55 58 58 77 81 74 68 61 61 61 61 68 68
0 19 45 55 71 77 84 97 97 100 97 100 100 100 100 100 100 97 94 94 87 81 74 71 68 58 58 45 23 19 19 19 6 13 16 29 35 39 45 58 58 55 55 52 58 48 55 55 55
16 26 52 61 81 90 90 94 100 94 97 97 100 97 100 97 94 97 87 87 74 68 65 55 45 42 26 16 10 6 6 0 0 0 0 6 10 23 32 35 42 35 39 39 29 29 29 42 29
13 13 10 45 68 84 81 65 97 94 94 97 94 94 94 94 94 90 74 74 65 55 45 23 19 16 10 10 10 3 3 3 0 0 0 3 0 6 13 10 13 10 13 16 16 19 16 13 16
0 0 0 23 42 61 61 58 90 87 84 90 97 94 94 90 87 74 61 58 52 48 19 19 16 6 10 6 6 3 3 3 0 0 0 0 0 0 0 3 10 6 3 3 10 3 10 6 10
0 0 0 6 23 39 42 45 74 77 81 77 77 84 90 84 77 65 52 42 35 23 19 19 13 16 10 6 10 3 0 0 0 0 0 0 0 0 0 0 0 0 0 3 0 3 10 10 13
0 0 0 6 23 19 26 32 58 68 65 58 61 61 52 55 65 52 39 29 19 23 23 19 19 16 13 10 3 3 0 0 0 0 0 0 0 0 0 0 0 0 0 0 0 0 0 0 3
0 0 0 19 23 23 19 29 52 58 52 48 45 42 32 35 45 32 29 16 19 26 29 26 29 19 16 10 10 3 0 0 0 0 0 0 0 0 0 0 0 0 0 0 0 0 0 0 0
0 0 0 3 26 19 16 16 32 35 35 35 32 32 19 16 23 16 13 13 16 29 32 19 29 23 19 10 6 3 0 0 0 0 0 0 0 0 0 0 0 0 0 0 0 0 0 0 0
0 0 0 0 0 3 0 0 10 23 23 23 29 35 29 16 16 16 13 13 23 29 26 35 45 45 26 16 6 0 0 0 0 0 0 0 0 0 0 0 0 0 0 0 0 0 0 0 0
0 0 0 0 0 0 3 0 0 6 10 19 19 32 35 35 23 23 19 26 26 16 23 39 52 52 32 16 13 13 3 0 0 0 0 0 0 0 0 0 0 0 0 0 0 0 0 0 0
0 0 0 0 0 0 0 0 0 0 3 3 10 13 29 19 29 26 19 29 35 32 29 29 45 58 35 19 6 6 6 3 0 0 0 0 0 0 0 0 0 0 0 0 0 0 0 0 0
0 0 0 0 0 0 0 0 0 0 0 0 3 13 13 13 19 32 42 29 39 26 19 19 26 19 16 13 6 6 3 0 0 0 0 0 0 0 0 0 0 0 0 0 0 0 0 0 0
0 0 0 0 0 0 0 0 0 3 3 0 0 3 3 3 6 10 19 26 26 13 13 6 16 16 10 3 0 0 0 0 0 0 0 0 0 0 0 0 0 0 0 0 0 0 0 0 0
0 0 0 0 0 0 0 0 0 0 0 0 0 0 0 3 3 6 13 6 6 3 3 3 3 3 0 0 0 0 0 0 0 0 0 0 0 0 0 0 0 0 0 0 0 0 0 0 0
0 0 0 0 0 0 0 0 0 0 0 0 0 0 0 0 0 0 0 0 0 0 0 0 0 0 0 0 0 0 0 0 0 0 0 0 0 0 0 0 0 0 0 0 0 0 0 0 0
0 0 0 0 0 0 0 0 0 0 0 0 0 0 0 0 0 0 0 0 0 0 0 0 0 0 0 0 0 0 0 0 0 0 0 0 0 0 0 0 0 0 0 0 0 0 0 0 0
0 0 0 0 0 0 0 0 0 0 0 0 0 0 0 0 0 0 0 0 0 0 0 0 0 0 0 0 0 0 0 0 0 0 0 0 0 0 0 0 0 0 0 0 0 0 0 0 0

GEFSSGP_con_cape1000_054.txt.gz
Probability
55 45 42 48 65 55 32 6 3 10 0 16 32 52 74 87 81 58 61 100 97 100 100 100 100 100 100 100 100 100 100 100 100 100 100 100 100 100 100 100 100 97 97 94 90 90 94 94 84
39 42 48 39 52 42 6 3 10 3 6 6 26 45 71 68 58 61 74 97 97 97 100 100 100 100 100 100 100 100 100 100 100 100 100 100 100 100 100 100 100 100 100 100 94 87 87 87 90
29 52 26 26 48 16 0 10 6 0 3 10 42 77 87 84 74 81 74 94 100 100 100 100 100 100 100 100 100 100 100 100 100 100 100 100 100 100 100 97 100 100 100 100 97 90 74 87 94
48 35 13 16 3 0 0 3 6 0 0 6 58 94 97 94 84 65 58 100 100 100 100 100 100 100 100 100 100 100 100 100 100 100 100 100 100 100 100 100 100 100 100 100 100 97 87 90 90
39 19 3 3 0 0 0 0 6 10 0 13 71 100 100 90 71 48 65 100 100 100 100 100 100 100 100 100 100 100 100 100 100 100 100 100 100 100 100 100 100 100 100 100 100 100 97 94 94
19 3 0 0 0 0 0 0 3 19 16 39 90 97 100 90 74 55 71 81 100 100 100 100 100 100 100 100 100 100 100 100 100 100 97 100 100 100 100 100 100 100 100 100 100 100 100 97 100
3 0 0 0 0 0 0 3 23 19 23 42 71 94 94 94 87 65 65 94 100 100 100 100 100 100 100 100 100 100 100 100 100 100 100 100 100 100 100 100 100 100 100 100 100 100 100 97 100
0 0 0 0 0 3 6 16 26 26 45 55 74 97 100 100 97 71 81 87 100 100 100 100 100 100 100 100 100 100 97 97 94 97 97 97 97 100 97 97 100 100 100 100 100 100 100 100 100
0 0 0 0 0 0 10 13 19 39 55 71 90 94 100 100 97 97 94 94 100 100 100 100 100 100 100 100 97 97 97 94 94 94 97 97 97 97 94 94 94 100 100 100 100 100 100 100 100
0 0 0 0 3 3 6 16 19 35 52 84 90 97 97 94 97 100 100 100 94 97 97 97 100 100 97 94 97 94 90 94 94 87 87 90 94 97 87 84 84 87 94 94 97 100 100 100 100
0 0 0 0 3 10 10 10 19 42 52 81 87 97 100 100 97 100 100 94 94 97 97 97 94 94 90 90 87 81 84 87 84 77 74 87 81 84 87 90 84 84 84 94 97 97 97 97 100
0 0 0 0 0 3 6 13 32 52 58 65 77 90 100 100 94 97 94 90 94 97 94 84 87 87 87 87 84 81 68 61 65 58 58 58 65 74 74 87 81 84 87 84 81 84 84 90 94
0 0 0 0 3 0 6 16 45 61 58 74 81 94 94 90 94 97 94 94 97 90 84 84 87 81 77 77 65 42 42 29 32 42 52 45 42 52 65 71 77 68 74 87 87 87 81 74 77
0 0 0 0 3 0 3 13 32 55 61 81 90 100 97 94 97 97 100 94 90 84 84 84 81 71 65 58 35 32 23 26 13 19 13 16 19 35 52 58 68 68 68 81 81 71 61 65 71
0 0 3 0 0 0 0 13 23 45 65 84 100 100 97 97 97 100 94 87 87 84 81 77 65 52 39 29 26 13 10 6 3 3 6 6 3 13 16 29 61 58 52 52 55 52 58 61 45
0 0 0 0 0 0 0 10 26 32 58 87 97 94 97 97 100 90 87 84 77 74 74 58 35 39 39 29 16 10 13 10 3 3 3 3 3 3 10 19 32 42 39 45 42 39 32 29 29
0 0 0 0 0 0 3 16 26 32 42 77 90 94 94 97 87 84 81 77 71 77 74 65 45 35 19 19 10 13 13 10 6 3 0 0 0 0 0 13 19 10 13 19 6 32 19 16 23
0 0 0 0 0 0 3 6 26 29 35 58 90 84 90 87 81 81 81 61 77 84 74 61 48 45 29 26 19 19 10 6 3 3 0 0 0 0 0 0 6 0 3 16 19 19 13 13 23
0 0 0 0 0 0 3 10 23 32 39 55 71 74 81 81 74 71 61 52 61 81 81 71 58 58 55 39 32 32 16 6 3 3 0 0 0 0 0 0 0 0 3 3 0 6 3 6 6
0 0 0 0 0 0 3 3 23 35 39 42 39 48 52 55 65 55 52 48 45 68 84 81 77 74 68 71 52 42 23 13 10 0 0 0 0 0 0 0 0 0 0 0 0 3 3 0 0
0 0 0 0 0 0 0 0 10 26 32 35 32 32 32 48 48 45 42 29 35 52 77 39 81 81 77 61 48 39 19 16 16 0 0 0 0 0 0 0 0 0 0 0 3 3 6 0 0
0 0 0 0 0 0 0 0 13 19 32 26 29 32 32 32 39 45 26 26 23 45 52 90 94 90 90 71 61 32 26 16 16 3 3 0 0 0 0 0 0 0 0 0 0 0 3 3 3
0 0 0 0 0 0 0 0 3 10 19 23 23 26 23 26 23 26 23 26 23 42 55 84 97 97 90 77 58 42 29 19 13 6 3 0 0 0 0 0 0 0 0 0 0 0 3 3 3
0 0 0 0 0 0 0 0 6 6 10 13 16 19 29 29 19 19 19 42 45 48 58 77 100 97 87 68 52 42 26 19 10 6 3 0 0 0 0 0 0 0 0 0 0 0 0 0 0
0 0 0 0 0 0 0 0 3 3 3 3 10 19 23 26 23 16 19 32 58 61 68 74 94 87 71 55 45 26 19 13 13 3 3 0 0 0 0 0 0 0 0 0 0 0 0 0 0
0 0 0 0 0 0 0 0 3 0 0 3 3 10 19 16 19 13 19 39 55 48 65 65 77 81 68 45 35 26 13 3 3 3 0 0 0 0 0 0 0 0 0 0 0 0 0 0 0
0 0 0 0 0 0 0 0 0 0 0 0 3 6 13 16 16 16 16 23 39 55 52 52 74 58 48 23 26 16 10 3 0 3 0 0 0 0 0 0 0 0 0 0 0 0 0 0 0
0 0 0 0 0 0 0 0 0 0 0 0 0 3 3 6 10 10 13 10 16 32 45 39 48 45 32 13 13 0 6 13 10 3 0 0 0 0 0 0 0 0 0 0 0 0 0 0 0
0 0 0 0 0 0 0 0 0 10 0 0 0 0 0 0 3 6 3 3 10 13 19 19 23 23 19 13 3 0 3 3 3 3 0 3 3 0 0 0 0 0 0 0 0 0 0 0 0
0 0 0 0 3 3 0 0 0 0 0 0 0 0 0 0 0 0 0 6 10 6 6 10 13 6 3 0 6 6 6 13 10 0 3 3 6 0 0 0 0 0 0 0 0 0 0 0 0